IBE2144 SVMI-SKRG

Flight info

Callsign IBE2144
Flight time N/A
Altitude 36000
Route MARES1 MARES DCT PBL UW40 BRM UW8 LFA UW34 CUC UW26 MRN MRN3D
Aircraft B752/M-SDE3FGHIM3RWXY/LB1

Departure

Time 2025-10-08 09:15
Airport Maiquetía Simón Bolívar International Airport (SVMI)

Arrival

Time N/A
Airport Jose Maria Córdova International Airport (SKRG)
Time Latitude Longitude Altitude Speed Heading
2025-10-08 09:05 10.59769 -66.99441 240 ft 0 kts 76°
2025-10-08 09:08 10.59809 -66.99335 232 ft 10 kts 63°
2025-10-08 09:09 10.59825 -66.99248 228 ft 5 kts 268°
2025-10-08 09:09 10.59820 -66.99318 231 ft 4 kts 264°
2025-10-08 09:10 10.59813 -66.99379 234 ft 4 kts 263°
2025-10-08 09:10 10.59803 -66.99435 237 ft 3 kts 258°
2025-10-08 09:11 10.59794 -66.99480 240 ft 11 kts 258°
2025-10-08 09:11 10.59796 -66.99634 246 ft 9 kts 275°
2025-10-08 09:12 10.59802 -66.99683 247 ft 0 kts 282°
2025-10-08 09:13 10.59832 -66.99741 247 ft 4 kts 322°
2025-10-08 09:13 10.59886 -66.99693 240 ft 12 kts 68°
2025-10-08 09:14 10.60164 -66.98553 171 ft 170 kts 77°
2025-10-08 09:14 10.60735 -66.95573 1072 ft 266 kts 78°
2025-10-08 09:15 10.61194 -66.93602 2001 ft 300 kts 76°
2025-10-08 09:15 10.62565 -66.89025 3328 ft 363 kts 71°
2025-10-08 09:16 10.65082 -66.84701 5922 ft 372 kts 43°
2025-10-08 09:16 10.72320 -66.82014 9020 ft 391 kts 357°
2025-10-08 09:17 10.77515 -66.83719 10845 ft 399 kts 326°
2025-10-08 09:17 10.81360 -66.87750 12379 ft 400 kts 302°
2025-10-08 09:18 10.84047 -66.92604 12872 ft 383 kts 296°
2025-10-08 09:18 10.86255 -66.97398 13355 ft 365 kts 292°
2025-10-08 09:19 10.87211 -66.99749 13596 ft 358 kts 291°
2025-10-08 09:19 10.88890 -67.04409 14080 ft 345 kts 288°
2025-10-08 09:20 10.90293 -67.08983 14565 ft 333 kts 285°
2025-10-08 09:21 10.92320 -67.17863 15537 ft 312 kts 270°
2025-10-08 09:21 10.92142 -67.20031 15800 ft 305 kts 262°
2025-10-08 09:21 10.91696 -67.24239 16281 ft 297 kts 264°
2025-10-08 09:22 10.91379 -67.28368 16765 ft 288 kts 265°
2025-10-08 09:22 10.91506 -67.32363 17251 ft 278 kts 272°
2025-10-08 09:23 10.91607 -67.34292 17488 ft 273 kts 272°
2025-10-08 09:23 10.90484 -67.37711 18046 ft 257 kts 225°
2025-10-08 09:24 10.88146 -67.40511 18572 ft 262 kts 234°
2025-10-08 09:24 10.86087 -67.43615 19093 ft 276 kts 237°
2025-10-08 09:25 10.82735 -67.49136 19942 ft 332 kts 239°
2025-10-08 09:25 10.80345 -67.53159 20438 ft 333 kts 239°
2025-10-08 09:26 10.77936 -67.57232 20941 ft 336 kts 239°
2025-10-08 09:26 10.75531 -67.61301 21437 ft 338 kts 239°
2025-10-08 09:27 10.74306 -67.63374 21688 ft 340 kts 239°
2025-10-08 09:27 10.70634 -67.69585 22440 ft 344 kts 239°
2025-10-08 09:28 10.69411 -67.71654 22689 ft 345 kts 239°
2025-10-08 09:28 10.66928 -67.75851 23191 ft 348 kts 239°
2025-10-08 09:29 10.63163 -67.82214 23944 ft 352 kts 239°
2025-10-08 09:29 10.60631 -67.86491 24445 ft 355 kts 239°
2025-10-08 09:30 10.58087 -67.90786 24944 ft 357 kts 239°
2025-10-08 09:30 10.55504 -67.95145 25447 ft 360 kts 239°
2025-10-08 09:32 10.45732 -68.13175 27465 ft 371 kts 250°
2025-10-08 09:34 10.39664 -68.30670 29208 ft 381 kts 251°
2025-10-08 09:36 10.32533 -68.51277 31199 ft 394 kts 250°
2025-10-08 09:38 10.25149 -68.72566 33196 ft 407 kts 250°
2025-10-08 09:40 10.17523 -68.94501 35206 ft 420 kts 251°
2025-10-08 09:42 10.08675 -69.19891 35999 ft 425 kts 250°
2025-10-08 09:45 10.17915 -69.42296 36012 ft 431 kts 338°
2025-10-08 09:46 10.37313 -69.37535 36012 ft 440 kts 48°
2025-10-08 09:49 10.45410 -69.10991 36000 ft 443 kts 77°
2025-10-08 09:50 10.50064 -68.89646 36001 ft 443 kts 77°
2025-10-08 09:53 10.65797 -68.66946 36001 ft 442 kts 47°
2025-10-08 09:54 10.80239 -68.50774 36002 ft 441 kts 47°
2025-10-08 09:56 10.94674 -68.34626 36002 ft 440 kts 47°
2025-10-08 09:58 11.13169 -68.13902 36001 ft 438 kts 47°
2025-10-08 10:00 11.27456 -67.97862 36002 ft 437 kts 47°
2025-10-08 10:02 11.45834 -67.77193 36002 ft 438 kts 47°